Weather History for Milwaukee, WI

Change the Weather History Date:

Saturday, February 9, 2013

  Actual Average Record
Temperature  
Mean Temperature 20 °F 24 °F  
Max Temperature 30 °F 31 °F 51 °F (1938)
Min Temperature 10 °F 18 °F -22 °F (1933)
Degree Days  
Heating Degree Days 45 41  
Month to date heating degree days 431 373  
Since 1 July heating degree days 4016 4258  
Cooling Degree Days 0 0  
Month to date cooling degree days 0 0  
Year to date cooling degree days 0 0  
Moisture  
Dew Point 19 °F    
Average Humidity 86    
Maximum Humidity 96    
Minimum Humidity 75    
Precipitation  
Precipitation 0.00 in 0.05 in 1.09 in (2001)
Month to date precipitation 0.95 0.48  
Year to date precipitation 4.12 2.24  
Snow  
Snow 0.00 in 0.30 in 10.00 in (1901)
Month to date snowfall 10.1 3.3  
Since 1 July snowfall 21.5 31.3  
Snow Depth 7.00 in    
Sea Level Pressure  
Sea Level Pressure 30.30 in    
Wind  
Wind Speed 5 mph (South)    
Max Wind Speed 15 mph    
Max Gust Speed 21 mph    
Visibility 7 miles    
Events      
T = Trace of Precipitation, MM = Missing Value Source: NWS Daily Summary

Daily Weather History Graph

Daily Weather History Graph

Search for Another Location

Airport:

Trip Planner

Search our weather history database for the weather conditions in past years. The results will help you decide how hot, cold, wet, or windy it might be!

Date:

Astronomy

Feb. 09, 2013 Rise Set
Actual Time 6:56 AM CST 5:15 PM CST
Civil Twilight 6:27 AM CST 5:44 PM CST
Nautical Twilight 5:53 AM CST 6:18 PM CST
Astronomical Twilight 5:20 AM CST 6:51 PM CST
Moon 6:07 AM CST (2/9) 4:58 PM CST (2/9)
Length of Visible Light 11h 17m
Length of Day
10h 18m
Waning Crescent, 0% of the Moon is Illuminated
Feb 9
Waning Crescent
Feb 10
New
Feb 17
First Quarter
Feb 25
Full
Mar 4
Last Quarter

Hourly Weather History & Observations

Time (CST) Temp. Windchill Dew Point Humidity Pressure Visibility Wind Dir Wind Speed Gust Speed Precip Events Conditions
12:42 AM 17.6 °F 10.7 °F 14.0 °F 86% 30.37 in 7.0 mi NW 4.6 mph - N/A   Scattered Clouds
12:52 AM 18.0 °F - 15.1 °F 88% 30.41 in 7.0 mi Calm Calm - N/A   Scattered Clouds
1:52 AM 17.1 °F - 12.9 °F 84% 30.41 in 6.0 mi Calm Calm - N/A   Partly Cloudy
2:52 AM 16.0 °F - 14.0 °F 92% 30.42 in 7.0 mi Calm Calm - N/A   Clear
3:52 AM 12.0 °F - 10.0 °F 92% 30.40 in 5.0 mi Calm Calm - N/A   Clear
4:48 AM 12.2 °F - 10.4 °F 92% 30.37 in 4.0 mi Calm Calm - N/A   Mostly Cloudy
4:52 AM 10.9 °F - 9.0 °F 92% 30.42 in 4.0 mi Calm Calm - N/A   Mostly Cloudy
5:52 AM 14.0 °F - 12.9 °F 95% 30.40 in 5.0 mi Calm Calm - N/A   Mostly Cloudy
6:52 AM 15.1 °F - 12.9 °F 91% 30.40 in 5.0 mi Calm Calm - N/A   Overcast
7:52 AM 15.1 °F - 14.0 °F 95% 30.40 in 5.0 mi Calm Calm - N/A   Mostly Cloudy
8:52 AM 19.9 °F 12.1 °F 18.0 °F 92% 30.39 in 4.0 mi SSW 5.8 mph - N/A   Overcast
9:52 AM 23.0 °F 11.7 °F 19.9 °F 88% 30.38 in 7.0 mi SSW 11.5 mph - N/A   Overcast
10:52 AM 25.0 °F 14.8 °F 19.9 °F 81% 30.37 in 8.0 mi South 10.4 mph - N/A   Overcast
11:52 AM 26.1 °F 16.2 °F 21.9 °F 84% 30.33 in 7.0 mi SSW 10.4 mph - N/A   Overcast
12:52 PM 28.0 °F 16.5 °F 21.9 °F 78% 30.28 in 10.0 mi South 15.0 mph 20.7 mph N/A   Overcast
1:52 PM 28.9 °F 19.8 °F 23.0 °F 78% 30.28 in 10.0 mi SSW 10.4 mph - N/A   Mostly Cloudy
2:52 PM 30.0 °F 22.4 °F 24.1 °F 79% 30.26 in 10.0 mi South 8.1 mph - N/A   Mostly Cloudy
3:52 PM 30.0 °F 25.2 °F 24.1 °F 79% 30.25 in 10.0 mi South 4.6 mph - N/A   Overcast
4:52 PM 30.0 °F - 25.0 °F 82% 30.23 in 10.0 mi Calm Calm - N/A   Mostly Cloudy
5:52 PM 28.9 °F 22.8 °F 25.0 °F 85% 30.22 in 9.0 mi South 5.8 mph - N/A   Mostly Cloudy
6:42 PM 28.4 °F 23.3 °F 24.8 °F 86% 30.17 in 8.0 mi South 4.6 mph - N/A   Mostly Cloudy
6:52 PM 28.0 °F 20.8 °F 25.0 °F 88% 30.21 in 7.0 mi South 6.9 mph - N/A   Mostly Cloudy
7:52 PM 26.1 °F 19.4 °F 23.0 °F 88% 30.19 in 6.0 mi South 5.8 mph - N/A   Scattered Clouds
8:52 PM 27.0 °F 19.5 °F 23.0 °F 85% 30.18 in 6.0 mi South 6.9 mph - N/A   Scattered Clouds
9:52 PM 28.0 °F 20.8 °F 24.1 °F 85% 30.16 in 6.0 mi South 6.9 mph - N/A   Scattered Clouds
10:52 PM 28.0 °F 20.8 °F 25.0 °F 88% 30.14 in 6.0 mi South 6.9 mph - N/A   Scattered Clouds
11:52 PM 28.9 °F 21.1 °F 25.0 °F 85% 30.12 in 6.0 mi SSE 8.1 mph - N/A   Scattered Clouds